星链-31695 (STARLINK-31695 )

导读 | 星芒AI

STARLINK-31695 是 SpaceX 星链(Starlink)卫星互联网项目中的第 31695 颗卫星。该卫星属于星链计划的低轨卫星群,旨在为全球用户提供高速、低延迟的互联网服务。它运行在近地轨道,配备先进通信设备,支持宽带数据传输。作为星链计划的一部分,该卫星有助于扩大网络覆盖范围,特别是在偏远和网络基础设施薄弱的地区。星链项目由数千颗卫星组成,致力于构建一个全球性的卫星互联网系统。

基本信息
目录编号:
59376
目录名称:
STARLINK-31695
国际标识:
2024-062C
轨道中心:
EARTH
卫星名称:
星链-31695
卫星全名:
星链-31695 (STARLINK-31695 )
卫星状态:
在轨 (已飞行579 天)
发射日期:
2024-04-02 UTC
国别 :
美国 (US)
星等 :
--
轨道信息
数据来源 国际轨道数据
星历时间: 2025-11-01T13:32:20+0800
1天前
查看轨道信息
半长轴: 6853.395km
偏心率: 0.0001132
轨道倾角: 53.158°
近地点辐角 93.443°
升交点赤经 132.352°
平近点角 266.670°
近地点: 474.484km
远地点: 476.036km
周期: 94.106分钟
每日圈数: 15.301858
详细信息
固有亮度:
5
最大亮度:
0.3
卫星平台:
Starlink v2.0 mini
覆盖范围:
全球
运营商:
太空探索技术公司
运营商所在国:
美国
制造商(研发单位):
太空探索技术公司
制造商所在国:
美国
使用方式:
暂无
卫星简介
星链(Starlink)计划是由太空探索技术公司(SpaceX)提出的一个巨型低轨卫星互联网星座项目,计划在2019年至2024年间在太空搭建由约1.2万颗卫星组成的“星链”网络,其中1584颗将部署在地球上空550千米处的近地轨道,并从2020年开始工作。该卫星仍在工作。
2D轨道图
3D轨道图
轨道高度分析图
轨道倾角分析图
轨道综合分析图
查看轨道综合分析图